BEL2372 EYVI-EBBR

Flight info

Callsign BEL2372
Flight time N/A
Altitude 38000
Route UPASI DCT TUNGA DCT SUWGI DCT ELKAR DCT DEKUT DCT GILAS DCT EMBOX DCT TOLGI DCT ABAMI Z717 NEREL T855 BATTY
Aircraft A320/M-SDE3FGHIRWY/LB1

Departure

Time N/A
Airport Vilnius International Airport (EYVI)

Arrival

Time 2026-05-07 14:55
Airport Brussels Airport (EBBR)
Time Latitude Longitude Altitude Speed Heading
2026-05-07 14:04 52.09573 11.54546 38058 ft 436 kts 251°
2026-05-07 14:04 52.07739 11.45150 38061 ft 437 kts 251°
2026-05-07 14:05 52.05897 11.35740 38064 ft 437 kts 254°
2026-05-07 14:05 52.04692 11.26058 38072 ft 438 kts 258°
2026-05-07 14:06 52.03550 11.16339 38075 ft 438 kts 258°
2026-05-07 14:06 52.02395 11.06685 38074 ft 438 kts 258°
2026-05-07 14:07 52.01225 10.96973 38077 ft 439 kts 258°
2026-05-07 14:07 52.00048 10.87259 38081 ft 439 kts 258°
2026-05-07 14:08 51.99066 10.79188 38092 ft 439 kts 258°
2026-05-07 14:08 51.97871 10.69483 38087 ft 439 kts 258°
2026-05-07 14:09 51.96674 10.59783 38087 ft 439 kts 258°
2026-05-07 14:09 51.95469 10.50085 38086 ft 439 kts 258°
2026-05-07 14:10 51.94256 10.40395 38086 ft 439 kts 257°
2026-05-07 14:10 51.93026 10.30710 38083 ft 439 kts 257°
2026-05-07 14:11 51.91792 10.21033 38086 ft 439 kts 257°
2026-05-07 14:11 51.90550 10.11354 38080 ft 439 kts 257°
2026-05-07 14:12 51.89300 10.01675 38082 ft 439 kts 257°
2026-05-07 14:12 51.88046 9.91993 38084 ft 440 kts 257°
2026-05-07 14:13 51.86785 9.82316 38076 ft 440 kts 257°
2026-05-07 14:13 51.85518 9.72643 38091 ft 439 kts 257°
2026-05-07 14:14 51.84239 9.62986 38092 ft 439 kts 257°
2026-05-07 14:14 51.82945 9.53405 38090 ft 439 kts 256°
2026-05-07 14:15 51.81443 9.43838 38091 ft 439 kts 254°
2026-05-07 14:15 51.79793 9.34456 38094 ft 439 kts 253°
2026-05-07 14:16 51.78126 9.24982 38092 ft 439 kts 253°
2026-05-07 14:16 51.76487 9.15487 38091 ft 439 kts 253°
2026-05-07 14:17 51.74866 9.06074 38093 ft 439 kts 253°
2026-05-07 14:17 51.73230 8.96581 38094 ft 439 kts 253°
2026-05-07 14:18 51.71576 8.87089 38097 ft 439 kts 253°
2026-05-07 14:18 51.69912 8.77620 38095 ft 439 kts 253°
2026-05-07 14:19 51.68248 8.68172 38100 ft 438 kts 253°
2026-05-07 14:19 51.66582 8.58736 38098 ft 438 kts 253°
2026-05-07 14:20 51.64902 8.49320 38097 ft 437 kts 253°
2026-05-07 14:20 51.63212 8.39913 38088 ft 438 kts 253°
2026-05-07 14:21 51.61530 8.30570 38089 ft 437 kts 253°
2026-05-07 14:21 51.59835 8.21178 38094 ft 437 kts 253°
2026-05-07 14:22 51.58124 8.11783 38087 ft 438 kts 253°
2026-05-07 14:22 51.56407 8.02396 38089 ft 438 kts 253°
2026-05-07 14:23 51.54678 7.93011 38091 ft 438 kts 253°
2026-05-07 14:23 51.52941 7.83632 38088 ft 438 kts 253°
2026-05-07 14:24 51.51203 7.74260 38095 ft 438 kts 253°
2026-05-07 14:24 51.49456 7.64907 38100 ft 438 kts 253°
2026-05-07 14:25 51.47706 7.55550 38099 ft 438 kts 253°
2026-05-07 14:25 51.45957 7.46266 38075 ft 438 kts 252°
2026-05-07 14:26 51.44182 7.36931 38075 ft 438 kts 252°
2026-05-07 14:26 51.42102 7.27793 38070 ft 437 kts 241°
2026-05-07 14:27 51.38658 7.19794 38069 ft 437 kts 233°
2026-05-07 14:27 51.35024 7.11998 38070 ft 437 kts 233°
2026-05-07 14:28 51.31392 7.04213 38067 ft 436 kts 233°
2026-05-07 14:28 51.27752 6.96457 38068 ft 436 kts 233°
2026-05-07 14:29 51.24106 6.88706 38070 ft 436 kts 233°
2026-05-07 14:29 51.20451 6.80973 38071 ft 436 kts 233°
2026-05-07 14:30 51.16796 6.73242 38067 ft 436 kts 233°
2026-05-07 14:30 51.13136 6.65531 38063 ft 436 kts 233°
2026-05-07 14:31 51.09465 6.57836 38072 ft 436 kts 232°
2026-05-07 14:31 51.05296 6.50836 38074 ft 436 kts 225°
2026-05-07 14:32 51.01033 6.44082 38072 ft 436 kts 225°
2026-05-07 14:32 50.96729 6.37308 38070 ft 436 kts 225°
2026-05-07 14:33 50.92421 6.30553 37932 ft 434 kts 225°
2026-05-07 14:33 50.90280 6.27189 37282 ft 433 kts 225°
2026-05-07 14:33 50.88137 6.23822 36584 ft 432 kts 225°
2026-05-07 14:33 50.86014 6.20488 35579 ft 429 kts 226°
2026-05-07 14:34 50.83892 6.17163 34517 ft 428 kts 226°
2026-05-07 14:34 50.81795 6.13890 33668 ft 420 kts 226°
2026-05-07 14:34 50.79729 6.10678 32731 ft 413 kts 226°
2026-05-07 14:34 50.77680 6.07500 31709 ft 414 kts 225°
2026-05-07 14:35 50.75630 6.04317 31236 ft 409 kts 225°
2026-05-07 14:35 50.73647 6.01107 30731 ft 404 kts 228°
2026-05-07 14:35 50.71799 5.97849 30188 ft 402 kts 230°
2026-05-07 14:35 50.69993 5.94490 29594 ft 399 kts 231°
2026-05-07 14:36 50.68429 5.90930 29068 ft 393 kts 244°
2026-05-07 14:36 50.67471 5.86936 28569 ft 388 kts 257°
2026-05-07 14:36 50.67105 5.82751 28046 ft 384 kts 269°
2026-05-07 14:36 50.67353 5.78591 27591 ft 380 kts 282°
2026-05-07 14:37 50.68203 5.74663 27124 ft 377 kts 295°
2026-05-07 14:37 50.70557 5.67340 26222 ft 371 kts 296°
2026-05-07 14:37 50.71722 5.63724 25770 ft 368 kts 296°
2026-05-07 14:38 50.72874 5.60131 25354 ft 365 kts 295°
2026-05-07 14:38 50.74015 5.56568 24900 ft 362 kts 295°
2026-05-07 14:38 50.75148 5.53021 24451 ft 360 kts 295°
2026-05-07 14:38 50.76275 5.49494 23993 ft 360 kts 295°
2026-05-07 14:39 50.77401 5.45957 23489 ft 361 kts 295°
2026-05-07 14:39 50.78527 5.42407 22990 ft 361 kts 295°
2026-05-07 14:39 50.79646 5.38876 22517 ft 361 kts 295°
2026-05-07 14:39 50.80764 5.35346 22044 ft 358 kts 295°
2026-05-07 14:40 50.81874 5.31835 21571 ft 355 kts 295°
2026-05-07 14:40 50.82975 5.28352 21104 ft 353 kts 295°
2026-05-07 14:40 50.84071 5.24885 20632 ft 351 kts 295°
2026-05-07 14:40 50.85157 5.21433 20168 ft 349 kts 295°
2026-05-07 14:41 50.86236 5.18003 19709 ft 347 kts 295°
2026-05-07 14:41 50.87229 5.14528 19252 ft 345 kts 288°
2026-05-07 14:41 50.87777 5.10853 18810 ft 342 kts 276°
2026-05-07 14:41 50.87960 5.07109 18370 ft 340 kts 273°
2026-05-07 14:42 50.88123 5.03374 17902 ft 338 kts 273°
2026-05-07 14:42 50.88285 4.99675 17473 ft 336 kts 273°
2026-05-07 14:42 50.88446 4.96002 17052 ft 333 kts 273°
2026-05-07 14:42 50.88603 4.92365 16639 ft 330 kts 273°
2026-05-07 14:43 50.88762 4.88695 16221 ft 328 kts 273°
2026-05-07 14:43 50.88918 4.85103 15817 ft 326 kts 274°
2026-05-07 14:43 50.89073 4.81532 15414 ft 324 kts 273°
2026-05-07 14:43 50.89225 4.77972 15010 ft 323 kts 273°
2026-05-07 14:44 50.89373 4.74433 14620 ft 321 kts 273°
2026-05-07 14:44 50.89522 4.70862 14202 ft 320 kts 273°
2026-05-07 14:44 50.89670 4.67347 13795 ft 319 kts 274°
2026-05-07 14:44 50.89816 4.63861 13369 ft 318 kts 273°
2026-05-07 14:45 50.89959 4.60383 12965 ft 315 kts 273°
2026-05-07 14:45 50.90101 4.56936 12562 ft 313 kts 273°
2026-05-07 14:45 50.90245 4.53506 12159 ft 311 kts 274°
2026-05-07 14:45 50.90472 4.50108 11741 ft 310 kts 276°
2026-05-07 14:46 50.90768 4.46731 11327 ft 308 kts 277°
2026-05-07 14:46 50.91090 4.43383 10910 ft 307 kts 278°
2026-05-07 14:46 50.91416 4.40051 10491 ft 305 kts 277°
2026-05-07 14:46 50.91732 4.36734 10158 ft 301 kts 277°
2026-05-07 14:47 50.92029 4.33548 10021 ft 290 kts 277°
2026-05-07 14:47 50.92315 4.30412 9700 ft 286 kts 277°
2026-05-07 14:47 50.92592 4.27307 9314 ft 284 kts 277°
2026-05-07 14:47 50.92864 4.24220 8925 ft 282 kts 277°
2026-05-07 14:48 50.93133 4.21158 8540 ft 279 kts 277°
2026-05-07 14:48 50.93258 4.18100 8155 ft 277 kts 264°
2026-05-07 14:48 50.92823 4.15160 7774 ft 275 kts 246°
2026-05-07 14:48 50.91851 4.12576 7368 ft 273 kts 229°
2026-05-07 14:49 50.90937 4.11151 7096 ft 272 kts 219°
2026-05-07 14:49 50.89407 4.09410 6694 ft 270 kts 206°
2026-05-07 14:49 50.87640 4.08621 6288 ft 269 kts 183°
2026-05-07 14:49 50.85801 4.09016 5867 ft 267 kts 159°
2026-05-07 14:50 50.84128 4.10188 5468 ft 264 kts 155°
2026-05-07 14:50 50.82472 4.11440 5023 ft 264 kts 148°
2026-05-07 14:50 50.81261 4.13527 4606 ft 260 kts 112°
2026-05-07 14:50 50.81051 4.16165 4249 ft 255 kts 80°
2026-05-07 14:51 50.81581 4.18803 3903 ft 250 kts 65°
2026-05-07 14:51 50.82368 4.21252 3548 ft 247 kts 61°
2026-05-07 14:51 50.83166 4.23526 3203 ft 244 kts 60°
2026-05-07 14:51 50.83944 4.25788 2875 ft 241 kts 62°
2026-05-07 14:52 50.84711 4.28120 2558 ft 237 kts 63°
2026-05-07 14:52 50.85439 4.30430 2240 ft 229 kts 63°
2026-05-07 14:52 50.86116 4.32647 1936 ft 218 kts 64°
2026-05-07 14:52 50.86758 4.34797 1663 ft 208 kts 64°
2026-05-07 14:53 50.87348 4.36799 1417 ft 194 kts 65°
2026-05-07 14:53 50.87895 4.38676 1130 ft 180 kts 65°
2026-05-07 14:53 50.88401 4.40412 899 ft 168 kts 65°
2026-05-07 14:53 50.88867 4.42031 701 ft 152 kts 65°
2026-05-07 14:54 50.89291 4.43496 494 ft 142 kts 65°
2026-05-07 14:54 50.89695 4.44888 317 ft 137 kts 65°
2026-05-07 14:54 50.90093 4.46257 160 ft 136 kts 65°
2026-05-07 14:54 50.90445 4.47474 123 ft 100 kts 65°
2026-05-07 14:55 50.90661 4.48227 120 ft 50 kts 66°
2026-05-07 14:55 50.90784 4.48653 117 ft 40 kts 65°
2026-05-07 14:55 50.90902 4.49065 117 ft 43 kts 66°
2026-05-07 14:55 50.90980 4.49466 120 ft 36 kts 86°
2026-05-07 14:56 50.90928 4.49684 123 ft 15 kts 181°
2026-05-07 14:56 50.90823 4.49628 124 ft 18 kts 210°
2026-05-07 14:56 50.90744 4.49421 121 ft 27 kts 245°
2026-05-07 14:56 50.90659 4.49123 119 ft 29 kts 245°
2026-05-07 14:57 50.90642 4.49063 121 ft 2 kts 246°
2026-05-07 14:57 50.90606 4.48942 121 ft 21 kts 245°
2026-05-07 14:57 50.90556 4.48861 120 ft 5 kts 160°
2026-05-07 14:57 50.90515 4.48885 120 ft 6 kts 154°
2026-05-07 14:58 50.90499 4.48897 121 ft 1 kts 156°
2026-05-07 14:58 50.90496 4.48898 121 ft 0 kts 156°
2026-05-07 14:58 50.90495 4.48899 121 ft 0 kts 156°